STARLINK-1683

Last updated on Fri Nov 06 2020 00:02:03 GMT+0000 (Coordinated Universal Time)

1 46578U 20070AY 20310.83334491 -.00064442 00000-0 -70199-3 0 9991 2 46578 53.0010 292.9484 0000960 77.2319 15.1255 15.62809174 5279

Satellite not in orbit